Simultaneous Nadir Overpasses (SNOs) Predictions

Prediction of SNOs between LANDSAT-8 and NOAA-19 Satellite Orbit:

Table of predicted SNOs for the next 14.0 days since TLE Epoch: 11/27/2021
Index Date (LANDSAT-8) Time (LANDSAT-8) Lat,Lon (LANDSAT-8) SZA (LANDSAT-8 ) Date (NOAA-19) Time (NOAA-19) Lat,Lon (NOAA-19) SZA (NOAA-19 ) Distance(km) Time Diff (sec)
1 11/27/2021 07:32:06 -80.61, -79.66 76.51 11/27/2021 07:31:31 -80.62, -79.79 76.53 2.54 35
2 11/27/2021 08:21:33 80.59, 87.71 103.46 11/27/2021 08:22:26 80.60, 87.83 103.50 3.09 53
3 11/29/2021 13:55:17 -80.61,-175.49 76.14 11/29/2021 13:55:35 -80.61,-175.42 76.13 1.15 18
4 12/01/2021 19:29:01 80.60, -78.99 104.18 12/01/2021 19:28:36 80.62, -78.98 104.19 2.40 25
5 12/01/2021 20:18:28 -80.60, 88.66 75.82 12/01/2021 20:19:40 -80.61, 88.56 75.79 1.96 72
6 12/04/2021 01:02:45 -80.62, 17.80 75.49 12/04/2021 01:01:45 -80.62, 17.96 75.50 2.88 60
7 12/04/2021 01:52:11 80.62,-174.56 104.52 12/04/2021 01:52:39 80.60,-174.41 104.53 3.49 28
8 12/06/2021 07:25:56 -80.61, -78.10 75.25 12/06/2021 07:25:50 -80.62, -78.11 75.24 1.12 6
9 12/08/2021 12:59:39 80.62, 18.59 105.00 12/08/2021 12:58:49 80.62, 18.74 104.99 2.63 50
10 12/08/2021 13:49:06 -80.63,-173.70 74.99 12/08/2021 13:49:54 -80.61,-173.86 75.00 3.32 48



Historial Predications of SNOs between LANDSAT-8 and NOAA-19
